Location: Killam
(52.7910°N, 111.8608°W)
Time: 17:06:29
(UTC+00:00)

Vanguard 2 Rocket - Pass Details

Date: 16 February 2026
Orbit: 553 x 3286 km, 32.9° (Epoch: 11 March)

Event Time Altitude Azimuth Distance (km) Brightness Sun altitude
Rises 19:43:17 0° 216° (SW) 7,219 12.3 25.1°
Reaches altitude 10° 19:49:46 10° 206° (SSW) 6,025 12.4 25.1°
Maximum altitude 20:02:19 24° 162° (SSE) 4,249 11.9 24.9°
Drops below altitude 10° 20:11:48 10° 115° (ESE) 4,472 10.7 24.8°
Sets 20:15:38 0° 102° (ESE) 5,062 10.8 24.7°
